,,,PA_Meas_PMT16A,,PR_Meas_QMR101_102,,RH_Meas_QMH101,,SR_Meas_QMS101,,TA_Meas_QMH101,,GenWind,,GenWind,
date,time,status,PA,status,PR,status,RH,status,SR,status,TA,status,DirAvg,status,SpdAvg,
2008-10-07, 00:00:04,VALID,1004.86,VALID,0,VALID,90.3717,VALID,0,VALID,24.3849,VALID,13,VALID,0.00429688,
2008-10-07, 00:01:04,VALID,1004.84,VALID,0,VALID,90.5167,VALID,0,VALID,24.3654,VALID,23,VALID,0.522656,
2008-10-07, 00:02:04,VALID,1004.79,VALID,0,VALID,90.5472,VALID,0,VALID,24.3849,VALID,24,VALID,0.642578,
2008-10-07, 00:03:04,VALID,1004.78,VALID,0,VALID,90.3793,VALID,0,VALID,24.4043,VALID,27,VALID,0.242578,
2008-10-07, 00:04:04,VALID,1004.79,VALID,0,VALID,90.2649,VALID,0,VALID,24.4238,VALID,27,VALID,0.382031,
2008-10-07, 00:05:04,VALID,1004.73,VALID,0,VALID,90.2039,VALID,0,VALID,24.4433,VALID,40,VALID,0.473828,
2008-10-07, 00:06:04,VALID,1004.67,VALID,0,VALID,90.1963,VALID,0,VALID,24.4646,VALID,42,VALID,0.476172,
2008-10-07, 00:07:04,VALID,1004.65,VALID,0,VALID,90.2802,VALID,0.100563,VALID,24.422,VALID,11,VALID,0.917188,
2008-10-07, 00:08:04,VALID,1004.63,VALID,0,VALID,90.1276,VALID,0,VALID,24.5406,VALID,22,VALID,0.772656,
2008-10-07, 00:09:04,VALID,1004.6,VALID,0,VALID,89.7233,VALID,0.100563,VALID,24.6185,VALID,25,VALID,0.491406,
2008-10-07, 00:10:04,VALID,1004.58,VALID,0,VALID,89.5173,VALID,0.100563,VALID,24.638,VALID,18,VALID,1.05,
2008-10-07, 00:11:04,VALID,1004.59,VALID,0,VALID,88.8383,VALID,0.100563,VALID,24.7919,VALID,24,VALID,1.29609,
2008-10-07, 00:12:04,VALID,1004.6,VALID,0,VALID,87.6558,VALID,0,VALID,25.045,VALID,41,VALID,0.730469,
2008-10-07, 00:13:04,VALID,1004.59,VALID,0,VALID,86.9311,VALID,0,VALID,25.1248,VALID,19,VALID,0.694531,
2008-10-07, 00:14:04,VALID,1004.59,VALID,0,VALID,86.7556,VALID,0,VALID,25.1248,VALID,74,VALID,0.657812,
2008-10-07, 00:15:04,VALID,1004.57,VALID,0,VALID,86.5954,VALID,0,VALID,25.1248,VALID,22,VALID,0.663672,
2008-10-07, 00:16:04,VALID,1004.59,VALID,0,VALID,86.2445,VALID,0.100563,VALID,25.2221,VALID,45,VALID,0.435156,
2008-10-07, 00:17:04,VALID,1004.58,VALID,0,VALID,85.9699,VALID,0,VALID,25.2416,VALID,41,VALID,0.524609,
2008-10-07, 00:18:04,VALID,1004.59,VALID,0,VALID,85.7486,VALID,0,VALID,25.2611,VALID,30,VALID,0.782422,
2008-10-07, 00:19:04,VALID,1004.59,VALID,0,VALID,85.5503,VALID,0.100563,VALID,25.339,VALID,1,VALID,0.438281,
2008-10-07, 00:20:04,VALID,1004.6,VALID,0,VALID,85.3748,VALID,0,VALID,25.339,VALID,13,VALID,0.545313,
2008-10-07, 00:21:04,VALID,1004.6,VALID,0,VALID,85.5808,VALID,0.100563,VALID,25.3195,VALID,13,VALID,0.187109,
2008-10-07, 00:22:04,VALID,1004.64,VALID,0,VALID,85.6571,VALID,0.100563,VALID,25.2416,VALID,25,VALID,0.217578,
2008-10-07, 00:23:04,VALID,1004.63,VALID,0,VALID,85.9012,VALID,0.100563,VALID,25.1637,VALID,34,VALID,0.595312,
2008-10-07, 00:24:04,VALID,1004.66,VALID,0,VALID,86.2292,VALID,0.100563,VALID,25.0858,VALID,34,VALID,0.252734,
2008-10-07, 00:25:04,VALID,1004.66,VALID,0,VALID,86.6107,VALID,0,VALID,24.9885,VALID,54,VALID,0.539453,
2008-10-07, 00:26:04,VALID,1004.65,VALID,0,VALID,86.8319,VALID,0.100563,VALID,24.93,VALID,34,VALID,1.00391,
2008-10-07, 00:27:04,VALID,1004.63,VALID,0,VALID,86.9998,VALID,0,VALID,24.8716,VALID,62,VALID,0.417969,
2008-10-07, 00:28:04,VALID,1004.64,VALID,0,VALID,87.2896,VALID,0,VALID,24.8327,VALID,51,VALID,0.480469,
2008-10-07, 00:29:04,VALID,1004.63,VALID,0,VALID,87.5185,VALID,0.100563,VALID,24.7743,VALID,50,VALID,0.325,
2008-10-07, 00:30:04,VALID,1004.63,VALID,0,VALID,87.7779,VALID,0,VALID,24.7353,VALID,50,VALID,0.0351563,
2008-10-07, 00:31:04,VALID,1004.59,VALID,0,VALID,88.0373,VALID,0,VALID,24.6769,VALID,18,VALID,0.244141,
2008-10-07, 00:32:04,VALID,1004.61,VALID,0,VALID,88.1593,VALID,0.100563,VALID,24.6769,VALID,42,VALID,0.545313,
2008-10-07, 00:33:04,VALID,1004.59,VALID,0,VALID,88.2127,VALID,0,VALID,24.6769,VALID,56,VALID,0.593359,
2008-10-07, 00:34:04,VALID,1004.6,VALID,0,VALID,88.0907,VALID,0,VALID,24.7177,VALID,42,VALID,0.292578,
2008-10-07, 00:35:04,VALID,1004.59,VALID,0,VALID,88.1136,VALID,0,VALID,24.6769,VALID,8,VALID,0.794922,
2008-10-07, 00:36:04,VALID,1004.59,VALID,0,VALID,87.8694,VALID,0,VALID,24.7353,VALID,33,VALID,0.742188,
2008-10-07, 00:37:04,VALID,1004.59,VALID,0,VALID,87.6101,VALID,0,VALID,24.7724,VALID,32,VALID,0.483594,
2008-10-07, 00:38:04,VALID,1004.6,VALID,0,VALID,87.6329,VALID,0,VALID,24.8132,VALID,23,VALID,0.355078,
2008-10-07, 00:39:04,VALID,1004.61,VALID,0,VALID,87.6024,VALID,0,VALID,24.7937,VALID,23,VALID,0.272656,
2008-10-07, 00:40:04,VALID,1004.58,VALID,0,VALID,87.6329,VALID,0,VALID,24.7548,VALID,23,VALID,0.311328,
2008-10-07, 00:41:04,VALID,1004.59,VALID,0,VALID,87.8084,VALID,0,VALID,24.7353,VALID,23,VALID,0.0707031,
2008-10-07, 00:42:04,VALID,1004.52,VALID,0,VALID,87.9228,VALID,0,VALID,24.6964,VALID,23,VALID,0.254297,
2008-10-07, 00:43:04,VALID,1004.53,VALID,0,VALID,87.9152,VALID,0,VALID,24.7353,VALID,48,VALID,0.375391,
2008-10-07, 00:44:04,VALID,1004.48,VALID,0,VALID,87.7779,VALID,0,VALID,24.7743,VALID,48,VALID,0.0445312,
2008-10-07, 00:45:04,VALID,1004.48,VALID,0,VALID,87.7855,VALID,0,VALID,24.7353,VALID,37,VALID,0.688281,
2008-10-07, 00:46:04,VALID,1004.49,VALID,0,VALID,87.8694,VALID,0.100563,VALID,24.7159,VALID,34,VALID,0.214844,
2008-10-07, 00:47:04,VALID,1004.45,VALID,0,VALID,87.9381,VALID,0.100563,VALID,24.675,VALID,31,VALID,0.264844,
2008-10-07, 00:48:04,VALID,1004.43,VALID,0,VALID,88.1365,VALID,0,VALID,24.638,VALID,55,VALID,0.396484,
2008-10-07, 00:49:04,VALID,1004.43,VALID,0,VALID,88.3119,VALID,0,VALID,24.5796,VALID,55,VALID,0.363672,
2008-10-07, 00:50:04,VALID,1004.42,VALID,0,VALID,88.5255,VALID,0.100563,VALID,24.5388,VALID,55,VALID,0.430078,
2008-10-07, 00:51:04,VALID,1004.38,VALID,0,VALID,88.7315,VALID,0.100563,VALID,24.5193,VALID,43,VALID,0.551172,
2008-10-07, 00:52:04,VALID,1004.39,VALID,0,VALID,88.8688,VALID,0.100563,VALID,24.5212,VALID,32,VALID,1.09961,
2008-10-07, 00:53:04,VALID,1004.39,VALID,0,VALID,88.556,VALID,0.100563,VALID,24.6574,VALID,19,VALID,1.1918,
2008-10-07, 00:54:04,VALID,1004.37,VALID,0,VALID,87.9534,VALID,0,VALID,24.8151,VALID,39,VALID,0.501562,
2008-10-07, 00:55:04,VALID,1004.39,VALID,0,VALID,87.5795,VALID,0,VALID,24.8327,VALID,39,VALID,0.348828,
2008-10-07, 00:56:04,VALID,1004.39,VALID,0,VALID,87.5414,VALID,0,VALID,24.7956,VALID,39,VALID,0.119141,
2008-10-07, 00:57:04,VALID,1004.4,VALID,0,VALID,87.7321,VALID,0,VALID,24.7372,VALID,64,VALID,0.470313,
2008-10-07, 00:58:04,VALID,1004.43,VALID,0,VALID,87.8847,VALID,0,VALID,24.6983,VALID,46,VALID,0.787109,
2008-10-07, 00:59:04,VALID,1004.44,VALID,0,VALID,87.9534,VALID,0,VALID,24.7196,VALID,50,VALID,0.426953,
2008-10-07, 01:00:04,VALID,1004.45,VALID,0,VALID,87.9534,VALID,0,VALID,24.6769,VALID,51,VALID,0.280859,
2008-10-07, 01:01:04,VALID,1004.48,VALID,0,VALID,87.9762,VALID,0,VALID,24.6983,VALID,58,VALID,0.49375,
2008-10-07, 01:02:04,VALID,1004.51,VALID,0,VALID,88.0907,VALID,0,VALID,24.6983,VALID,60,VALID,0.673828,
2008-10-07, 01:03:04,VALID,1004.54,VALID,0,VALID,88.0373,VALID,0,VALID,24.6983,VALID,59,VALID,0.420312,
2008-10-07, 01:04:04,VALID,1004.58,VALID,0,VALID,88.1136,VALID,0,VALID,24.6788,VALID,59,VALID,0.177344,
2008-10-07, 01:05:04,VALID,1004.58,VALID,0,VALID,88.2356,VALID,0,VALID,24.6593,VALID,59,VALID,0.3625,
2008-10-07, 01:06:04,VALID,1004.58,VALID,0,VALID,88.3348,VALID,0,VALID,24.6204,VALID,59,VALID,0.084375,
2008-10-07, 01:07:04,VALID,1004.59,VALID,0,VALID,88.4645,VALID,0,VALID,24.599,VALID,59,VALID,0.0339844,
2008-10-07, 01:08:04,VALID,1004.6,VALID,0,VALID,88.5408,VALID,0,VALID,24.599,VALID,59,VALID,0,
2008-10-07, 01:09:04,VALID,1004.62,VALID,0,VALID,88.6781,VALID,0,VALID,24.6009,VALID,59,VALID,0,
2008-10-07, 01:10:04,VALID,1004.63,VALID,0,VALID,88.8307,VALID,0,VALID,24.5796,VALID,59,VALID,0.334766,
2008-10-07, 01:11:04,VALID,1004.63,VALID,0,VALID,88.8383,VALID,0,VALID,24.5406,VALID,58,VALID,0.226172,
2008-10-07, 01:12:04,VALID,1004.65,VALID,0,VALID,88.9527,VALID,0,VALID,24.5035,VALID,58,VALID,0.316406,
2008-10-07, 01:13:04,VALID,1004.67,VALID,0,VALID,89.2045,VALID,0,VALID,24.4451,VALID,58,VALID,0.480078,
2008-10-07, 01:14:04,VALID,1004.63,VALID,0,VALID,89.502,VALID,0,VALID,24.3886,VALID,58,VALID,0.279297,
2008-10-07, 01:15:04,VALID,1004.65,VALID,0,VALID,89.708,VALID,0,VALID,24.2894,VALID,58,VALID,0.383594,
2008-10-07, 01:16:04,VALID,1004.67,VALID,0,VALID,90.0742,VALID,0,VALID,24.231,VALID,43,VALID,0.533984,
2008-10-07, 01:17:04,VALID,1004.67,VALID,0,VALID,90.3031,VALID,0,VALID,24.1726,VALID,43,VALID,0.071875,
2008-10-07, 01:18:04,VALID,1004.67,VALID,0,VALID,90.4862,VALID,0,VALID,24.0947,VALID,43,VALID,0.298828,
2008-10-07, 01:19:04,VALID,1004.7,VALID,0,VALID,90.6769,VALID,0,VALID,24.0345,VALID,43,VALID,0.473828,
2008-10-07, 01:20:04,VALID,1004.7,VALID,0,VALID,90.9515,VALID,0,VALID,24.0168,VALID,43,VALID,0.164844,
2008-10-07, 01:21:04,VALID,1004.75,VALID,0,VALID,91.1346,VALID,0,VALID,23.9779,VALID,43,VALID,0.239063,
2008-10-07, 01:22:04,VALID,1004.74,VALID,0,VALID,91.3711,VALID,0,VALID,23.9177,VALID,43,VALID,0.423047,
2008-10-07, 01:23:04,VALID,1004.73,VALID,0,VALID,91.6457,VALID,0,VALID,23.8982,VALID,44,VALID,0.358984,
2008-10-07, 01:24:04,VALID,1004.75,VALID,0,VALID,91.7907,VALID,0.100563,VALID,23.8964,VALID,44,VALID,0.1875,
2008-10-07, 01:25:04,VALID,1004.76,VALID,0,VALID,91.9509,VALID,0,VALID,23.8982,VALID,50,VALID,0.517187,
2008-10-07, 01:26:04,VALID,1004.74,VALID,0,VALID,92.0577,VALID,0,VALID,23.8982,VALID,48,VALID,0.374219,
2008-10-07, 01:27:04,VALID,1004.75,VALID,0,VALID,92.1035,VALID,0.100563,VALID,23.9177,VALID,46,VALID,0.572656,
2008-10-07, 01:28:04,VALID,1004.72,VALID,0,VALID,92.073,VALID,0.100563,VALID,23.9177,VALID,47,VALID,0.342969,
2008-10-07, 01:29:04,VALID,1004.71,VALID,0,VALID,92.0348,VALID,0,VALID,23.9389,VALID,47,VALID,0.248047,
2008-10-07, 01:30:04,VALID,1004.71,VALID,0,VALID,92.0119,VALID,0.100563,VALID,23.9177,VALID,47,VALID,0.201953,
2008-10-07, 01:31:04,VALID,1004.71,VALID,0,VALID,92.0119,VALID,0,VALID,23.8982,VALID,47,VALID,0.166406,
2008-10-07, 01:32:04,VALID,1004.69,VALID,0,VALID,92.073,VALID,0,VALID,23.8769,VALID,58,VALID,0.392578,
2008-10-07, 01:33:04,VALID,1004.7,VALID,0,VALID,92.2103,VALID,0,VALID,23.8787,VALID,58,VALID,0.404687,
2008-10-07, 01:34:04,VALID,1004.73,VALID,0,VALID,92.2027,VALID,0.100563,VALID,23.8982,VALID,58,VALID,0.556641,
2008-10-07, 01:35:04,VALID,1004.75,VALID,0,VALID,92.2027,VALID,0,VALID,23.8787,VALID,50,VALID,0.264453,
2008-10-07, 01:36:04,VALID,1004.75,VALID,0,VALID,92.1416,VALID,0.100563,VALID,23.8575,VALID,50,VALID,0.277734,
2008-10-07, 01:37:04,VALID,1004.77,VALID,0,VALID,92.2408,VALID,0.100563,VALID,23.8982,VALID,51,VALID,0.421484,
2008-10-07, 01:38:04,VALID,1004.79,VALID,0,VALID,92.2332,VALID,0,VALID,23.8575,VALID,53,VALID,0.207031,
2008-10-07, 01:39:04,VALID,1004.81,VALID,0,VALID,92.2713,VALID,0,VALID,23.9,VALID,53,VALID,0.491016,
2008-10-07, 01:40:04,VALID,1004.79,VALID,0,VALID,92.3629,VALID,0,VALID,23.9177,VALID,57,VALID,0.530078,
2008-10-07, 01:41:04,VALID,1004.8,VALID,0,VALID,92.3247,VALID,0,VALID,23.9177,VALID,57,VALID,0.519922,
2008-10-07, 01:42:04,VALID,1004.8,VALID,0,VALID,92.3018,VALID,0,VALID,23.9371,VALID,42,VALID,0.582422,
2008-10-07, 01:43:04,VALID,1004.78,VALID,0,VALID,92.2255,VALID,0,VALID,23.9973,VALID,31,VALID,0.288672,
2008-10-07, 01:44:04,VALID,1004.75,VALID,0,VALID,92.1798,VALID,0,VALID,24.015,VALID,31,VALID,0.482422,
2008-10-07, 01:45:04,VALID,1004.73,VALID,0,VALID,91.928,VALID,0,VALID,24.0539,VALID,31,VALID,0.542188,
2008-10-07, 01:46:04,VALID,1004.74,VALID,0,VALID,91.7754,VALID,0,VALID,24.0539,VALID,31,VALID,0.389062,
2008-10-07, 01:47:04,VALID,1004.68,VALID,0,VALID,91.6229,VALID,0,VALID,24.0557,VALID,31,VALID,0.364062,
2008-10-07, 01:48:04,VALID,1004.68,VALID,0,VALID,91.6991,VALID,0,VALID,24.0345,VALID,31,VALID,0.1875,
2008-10-07, 01:49:04,VALID,1004.65,VALID,0,VALID,91.7144,VALID,0,VALID,24.0345,VALID,58,VALID,0.564844,
2008-10-07, 01:50:04,VALID,1004.63,VALID,0,VALID,91.8288,VALID,0,VALID,24.0345,VALID,47,VALID,0.545703,
2008-10-07, 01:51:04,VALID,1004.65,VALID,0,VALID,91.8441,VALID,0,VALID,24.0539,VALID,47,VALID,0.467969,
2008-10-07, 01:52:04,VALID,1004.6,VALID,0,VALID,91.8441,VALID,0,VALID,24.0752,VALID,33,VALID,0.743359,
2008-10-07, 01:53:04,VALID,1004.6,VALID,0,VALID,91.7297,VALID,0,VALID,24.0734,VALID,12,VALID,0.444141,
2008-10-07, 01:54:04,VALID,1004.55,VALID,0,VALID,91.7449,VALID,0,VALID,24.1318,VALID,29,VALID,0.945313,
2008-10-07, 01:55:04,VALID,1004.54,VALID,0,VALID,91.1651,VALID,0,VALID,24.2681,VALID,28,VALID,0.461719,
2008-10-07, 01:56:04,VALID,1004.51,VALID,0,VALID,90.8752,VALID,0,VALID,24.3283,VALID,25,VALID,0.672656,
2008-10-07, 01:57:04,VALID,1004.5,VALID,0,VALID,90.448,VALID,0,VALID,24.4062,VALID,26,VALID,0.5125,
2008-10-07, 01:58:04,VALID,1004.5,VALID,0,VALID,90.2954,VALID,0,VALID,24.4451,VALID,29,VALID,0.563672,
2008-10-07, 01:59:04,VALID,1004.5,VALID,0,VALID,90.1429,VALID,0,VALID,24.4451,VALID,3,VALID,0.486328,
2008-10-07, 02:00:04,VALID,1004.5,VALID,0,VALID,90.2497,VALID,0,VALID,24.4451,VALID,2,VALID,0.9375,
2008-10-07, 02:01:04,VALID,1004.46,VALID,0,VALID,89.9292,VALID,0,VALID,24.5425,VALID,33,VALID,0.370313,
2008-10-07, 02:02:04,VALID,1004.43,VALID,0,VALID,89.5249,VALID,0,VALID,24.5601,VALID,34,VALID,0.212891,
2008-10-07, 02:03:04,VALID,1004.4,VALID,0,VALID,89.38,VALID,0,VALID,24.6204,VALID,33,VALID,0.301953,
2008-10-07, 02:04:04,VALID,1004.37,VALID,0,VALID,89.2045,VALID,0,VALID,24.6204,VALID,33,VALID,0.60625,
2008-10-07, 02:05:04,VALID,1004.37,VALID,0,VALID,89.3418,VALID,0,VALID,24.5814,VALID,33,VALID,0.345313,
2008-10-07, 02:06:04,VALID,1004.32,VALID,0,VALID,89.4486,VALID,0,VALID,24.5406,VALID,50,VALID,0.448438,
2008-10-07, 02:07:04,VALID,1004.26,VALID,0,VALID,89.5402,VALID,0,VALID,24.5035,VALID,14,VALID,0.794531,
2008-10-07, 02:08:04,VALID,1004.25,VALID,0,VALID,89.6775,VALID,0,VALID,24.4451,VALID,29,VALID,0.702344,
2008-10-07, 02:09:04,VALID,1004.23,VALID,0,VALID,89.8377,VALID,0,VALID,24.4062,VALID,9,VALID,0.775391,
2008-10-07, 02:10:04,VALID,1004.22,VALID,0,VALID,90.2725,VALID,0,VALID,24.4433,VALID,28,VALID,1.36328,
2008-10-07, 02:11:04,VALID,1004.16,VALID,0,VALID,89.4181,VALID,0,VALID,24.5796,VALID,25,VALID,1.10508,
2008-10-07, 02:12:04,VALID,1004.14,VALID,0,VALID,89.5325,VALID,0,VALID,24.4998,VALID,1,VALID,0.742969,
2008-10-07, 02:13:04,VALID,1004.11,VALID,0,VALID,89.5173,VALID,0,VALID,24.4628,VALID,3,VALID,0.951953,
2008-10-07, 02:14:04,VALID,1004.09,VALID,0,VALID,89.9979,VALID,0,VALID,24.4257,VALID,24,VALID,1.06641,
2008-10-07, 02:15:04,VALID,1004.08,VALID,0,VALID,90.12,VALID,0,VALID,24.4043,VALID,3,VALID,0.744141,
2008-10-07, 02:16:04,VALID,1004.11,VALID,0,VALID,90.0894,VALID,0,VALID,24.4451,VALID,12,VALID,0.530469,
2008-10-07, 02:17:04,VALID,1004.13,VALID,0,VALID,90.0437,VALID,0,VALID,24.5425,VALID,35,VALID,1.14688,
2008-10-07, 02:18:04,VALID,1004.15,VALID,0,VALID,89.3723,VALID,0,VALID,24.6964,VALID,27,VALID,0.756641,
2008-10-07, 02:19:04,VALID,1004.17,VALID,0,VALID,88.7086,VALID,0,VALID,24.893,VALID,24,VALID,0.888672,
2008-10-07, 02:20:04,VALID,1004.19,VALID,0,VALID,87.4193,VALID,0,VALID,25.1248,VALID,21,VALID,1.06094,
2008-10-07, 02:21:04,VALID,1004.24,VALID,0,VALID,86.2598,VALID,0,VALID,25.3798,VALID,37,VALID,0.846484,
2008-10-07, 02:22:04,VALID,1004.26,VALID,0,VALID,85.6647,VALID,0,VALID,25.4753,VALID,34,VALID,0.4,
2008-10-07, 02:23:04,VALID,1004.28,VALID,0,VALID,85.4358,VALID,0,VALID,25.5162,VALID,22,VALID,0.367188,
2008-10-07, 02:24:04,VALID,1004.31,VALID,0,VALID,85.2985,VALID,0,VALID,25.4948,VALID,22,VALID,0.202344,
2008-10-07, 02:25:04,VALID,1004.32,VALID,0,VALID,85.2527,VALID,0,VALID,25.4948,VALID,22,VALID,0.59375,
2008-10-07, 02:26:04,VALID,1004.33,VALID,0,VALID,85.1154,VALID,0,VALID,25.5337,VALID,23,VALID,1.14219,
2008-10-07, 02:27:04,VALID,1004.35,VALID,0,VALID,84.5433,VALID,0,VALID,25.6506,VALID,1,VALID,0.965625,
2008-10-07, 02:28:04,VALID,1004.36,VALID,0,VALID,84.1313,VALID,0,VALID,25.7908,VALID,23,VALID,0.971875,
2008-10-07, 02:29:04,VALID,1004.35,VALID,0,VALID,83.9635,VALID,0,VALID,25.8083,VALID,17,VALID,0.670703,
2008-10-07, 02:30:04,VALID,1004.39,VALID,0,VALID,83.6659,VALID,0,VALID,25.8473,VALID,354,VALID,0.449609,
2008-10-07, 02:31:04,VALID,1004.38,VALID,0,VALID,83.7575,VALID,0,VALID,25.8473,VALID,356,VALID,0.341406,
2008-10-07, 02:32:04,VALID,1004.39,VALID,0,VALID,83.7956,VALID,0,VALID,25.7869,VALID,37,VALID,0.549609,
2008-10-07, 02:33:04,VALID,1004.38,VALID,0,VALID,83.6583,VALID,0,VALID,25.8083,VALID,30,VALID,0.336328,
2008-10-07, 02:34:04,VALID,1004.38,VALID,0,VALID,84.2152,VALID,0,VALID,25.709,VALID,45,VALID,0.439844,
2008-10-07, 02:35:04,VALID,1004.36,VALID,0,VALID,84.7721,VALID,0,VALID,25.5941,VALID,44,VALID,0.360938,
2008-10-07, 02:36:04,VALID,1004.36,VALID,0,VALID,85.6037,VALID,0,VALID,25.3584,VALID,24,VALID,0.303906,
2008-10-07, 02:37:04,VALID,1004.36,VALID,0,VALID,86.2826,VALID,0,VALID,25.2435,VALID,24,VALID,0.448047,
2008-10-07, 02:38:04,VALID,1004.33,VALID,0,VALID,86.8701,VALID,0,VALID,25.0858,VALID,24,VALID,0.433594,
2008-10-07, 02:39:04,VALID,1004.35,VALID,0,VALID,86.9158,VALID,0,VALID,25.1072,VALID,21,VALID,0.260547,
2008-10-07, 02:40:04,VALID,1004.38,VALID,0,VALID,86.8929,VALID,0,VALID,25.1461,VALID,19,VALID,0.248047,
2008-10-07, 02:41:04,VALID,1004.39,VALID,0,VALID,86.9692,VALID,0,VALID,25.1461,VALID,19,VALID,0.00195313,
2008-10-07, 02:42:04,VALID,1004.4,VALID,0,VALID,86.9616,VALID,0,VALID,25.1072,VALID,19,VALID,0.398047,
2008-10-07, 02:43:04,VALID,1004.39,VALID,0,VALID,86.9464,VALID,0,VALID,25.1267,VALID,19,VALID,0.180859,
2008-10-07, 02:44:04,VALID,1004.36,VALID,0,VALID,87.0989,VALID,0,VALID,25.1072,VALID,19,VALID,0.220313,
2008-10-07, 02:45:04,VALID,1004.35,VALID,0,VALID,87.0684,VALID,0,VALID,25.1267,VALID,19,VALID,0.427344,
2008-10-07, 02:46:04,VALID,1004.32,VALID,0,VALID,87.0074,VALID,0,VALID,25.1072,VALID,1,VALID,0.919141,
2008-10-07, 02:47:04,VALID,1004.35,VALID,0,VALID,86.8167,VALID,0,VALID,25.1656,VALID,51,VALID,0.41875,
2008-10-07, 02:48:04,VALID,1004.33,VALID,0,VALID,87.076,VALID,0,VALID,25.1072,VALID,33,VALID,0.733203,
2008-10-07, 02:49:04,VALID,1004.32,VALID,0,VALID,87.5338,VALID,0,VALID,25.0098,VALID,31,VALID,0.619531,
2008-10-07, 02:50:04,VALID,1004.3,VALID,0,VALID,87.5338,VALID,0,VALID,25.0293,VALID,20,VALID,0.751172,
2008-10-07, 02:51:04,VALID,1004.29,VALID,0,VALID,87.4956,VALID,0,VALID,25.0098,VALID,14,VALID,0.813672,
2008-10-07, 02:52:04,VALID,1004.27,VALID,0,VALID,87.5033,VALID,0,VALID,25.0098,VALID,41,VALID,1.48555,
2008-10-07, 02:53:04,VALID,1004.3,VALID,0,VALID,86.9082,VALID,0,VALID,25.1461,VALID,20,VALID,0.414063,
2008-10-07, 02:54:04,VALID,1004.29,VALID,0,VALID,86.6259,VALID,0,VALID,25.2221,VALID,19,VALID,0.373047,
2008-10-07, 02:55:04,VALID,1004.32,VALID,0,VALID,86.6641,VALID,0.100563,VALID,25.2027,VALID,24,VALID,0.312109,
2008-10-07, 02:56:04,VALID,1004.35,VALID,0,VALID,86.4962,VALID,0,VALID,25.2027,VALID,24,VALID,0.498828,
2008-10-07, 02:57:04,VALID,1004.32,VALID,0,VALID,86.3894,VALID,0.100563,VALID,25.263,VALID,34,VALID,0.078125,
2008-10-07, 02:58:04,VALID,1004.34,VALID,0,VALID,86.1148,VALID,0,VALID,25.339,VALID,100,VALID,0.957031,
2008-10-07, 02:59:04,VALID,1004.33,VALID,0,VALID,85.5503,VALID,0.100563,VALID,25.4948,VALID,111,VALID,0.258594,
2008-10-07, 03:00:04,VALID,1004.38,VALID,0,VALID,85.1765,VALID,0,VALID,25.5337,VALID,34,VALID,0.285156,
2008-10-07, 03:01:04,VALID,1004.36,VALID,0,VALID,84.7797,VALID,0,VALID,25.5532,VALID,34,VALID,0,
2008-10-07, 03:02:04,VALID,1004.39,VALID,0,VALID,84.9018,VALID,0,VALID,25.5727,VALID,34,VALID,0.142969,
2008-10-07, 03:03:04,VALID,1004.37,VALID,0,VALID,84.94,VALID,0.100563,VALID,25.5707,VALID,34,VALID,0.233984,
2008-10-07, 03:04:04,VALID,1004.35,VALID,0,VALID,84.5661,VALID,0.100563,VALID,25.6116,VALID,41,VALID,0.386328,
2008-10-07, 03:05:04,VALID,1004.34,VALID,0,VALID,84.4441,VALID,0.100563,VALID,25.6311,VALID,21,VALID,0.639844,
2008-10-07, 03:06:04,VALID,1004.33,VALID,0,VALID,84.6043,VALID,0.100563,VALID,25.6311,VALID,82,VALID,0.599219,
2008-10-07, 03:07:04,VALID,1004.32,VALID,0,VALID,84.8332,VALID,0,VALID,25.5727,VALID,82,VALID,0.101953,
2008-10-07, 03:08:04,VALID,1004.36,VALID,0,VALID,85.1765,VALID,0,VALID,25.5123,VALID,82,VALID,0.512109,
2008-10-07, 03:09:04,VALID,1004.35,VALID,0,VALID,85.5503,VALID,0.100563,VALID,25.4149,VALID,82,VALID,0.471875,
2008-10-07, 03:10:04,VALID,1004.33,VALID,0,VALID,85.8631,VALID,0,VALID,25.339,VALID,82,VALID,0.426562,
2008-10-07, 03:11:04,VALID,1004.32,VALID,0,VALID,86.2826,VALID,0,VALID,25.2611,VALID,81,VALID,0.347266,
2008-10-07, 03:12:04,VALID,1004.32,VALID,0,VALID,86.6412,VALID,0.100563,VALID,25.2046,VALID,81,VALID,0.0539063,
2008-10-07, 03:13:04,VALID,1004.34,VALID,0,VALID,87.1066,VALID,0,VALID,25.1053,VALID,81,VALID,0.309375,
2008-10-07, 03:14:04,VALID,1004.34,VALID,0,VALID,87.4727,VALID,0,VALID,25.0079,VALID,81,VALID,0.219141,
2008-10-07, 03:15:04,VALID,1004.33,VALID,0,VALID,87.9839,VALID,0,VALID,24.93,VALID,81,VALID,0.235938,
2008-10-07, 03:16:04,VALID,1004.34,VALID,0,VALID,88.2814,VALID,0.100563,VALID,24.8308,VALID,81,VALID,0.348047,
2008-10-07, 03:17:04,VALID,1004.33,VALID,0,VALID,88.701,VALID,0.100563,VALID,24.7548,VALID,81,VALID,0.0109375,
2008-10-07, 03:18:04,VALID,1004.35,VALID,0,VALID,89.0214,VALID,0,VALID,24.7372,VALID,81,VALID,0.0679687,
2008-10-07, 03:19:04,VALID,1004.33,VALID,0,VALID,89.1282,VALID,0,VALID,24.6574,VALID,80,VALID,0.386719,
2008-10-07, 03:20:04,VALID,1004.34,VALID,0,VALID,89.38,VALID,0,VALID,24.599,VALID,79,VALID,0,
2008-10-07, 03:21:04,VALID,1004.32,VALID,0,VALID,89.502,VALID,0,VALID,24.5406,VALID,79,VALID,0.367578,
2008-10-07, 03:22:04,VALID,1004.34,VALID,0,VALID,89.853,VALID,0,VALID,24.5035,VALID,79,VALID,0.193359,
2008-10-07, 03:23:04,VALID,1004.33,VALID,0,VALID,90.12,VALID,0,VALID,24.4628,VALID,79,VALID,0.476563,
2008-10-07, 03:24:04,VALID,1004.31,VALID,0,VALID,90.2497,VALID,0.100563,VALID,24.4043,VALID,64,VALID,0.391797,
2008-10-07, 03:25:04,VALID,1004.31,VALID,0,VALID,90.4327,VALID,0,VALID,24.3459,VALID,63,VALID,0.628906,
2008-10-07, 03:26:04,VALID,1004.32,VALID,0,VALID,90.7226,VALID,0,VALID,24.3265,VALID,59,VALID,0.429688,
2008-10-07, 03:27:04,VALID,1004.31,VALID,0,VALID,90.86,VALID,0.100563,VALID,24.307,VALID,59,VALID,0.439063,
2008-10-07, 03:28:04,VALID,1004.29,VALID,0,VALID,91.0354,VALID,0.100563,VALID,24.307,VALID,58,VALID,0.529297,
2008-10-07, 03:29:04,VALID,1004.27,VALID,0,VALID,90.982,VALID,0,VALID,24.2875,VALID,58,VALID,0.405078,
2008-10-07, 03:30:04,VALID,1004.28,VALID,0,VALID,91.0583,VALID,0.100563,VALID,24.2486,VALID,58,VALID,0.473828,
2008-10-07, 03:31:04,VALID,1004.23,VALID,0,VALID,91.1651,VALID,0.100563,VALID,24.1884,VALID,59,VALID,0.275391,
2008-10-07, 03:32:04,VALID,1004.2,VALID,0,VALID,91.2567,VALID,0,VALID,24.1902,VALID,59,VALID,0.265625,
2008-10-07, 03:33:04,VALID,1004.2,VALID,0,VALID,91.3864,VALID,0,VALID,24.1494,VALID,55,VALID,0.625391,
2008-10-07, 03:34:04,VALID,1004.14,VALID,0,VALID,91.3864,VALID,0.100563,VALID,24.1513,VALID,51,VALID,0.265625,
2008-10-07, 03:35:04,VALID,1004.15,VALID,0,VALID,91.5847,VALID,0,VALID,24.1123,VALID,48,VALID,0.643359,
2008-10-07, 03:36:04,VALID,1004.1,VALID,0,VALID,91.6534,VALID,0.100563,VALID,24.0929,VALID,43,VALID,0.583594,
2008-10-07, 03:37:04,VALID,1004.1,VALID,0,VALID,91.7602,VALID,0,VALID,24.0734,VALID,34,VALID,0.424609,
2008-10-07, 03:38:04,VALID,1004.13,VALID,0,VALID,91.8288,VALID,0,VALID,24.0539,VALID,34,VALID,0.195703,
2008-10-07, 03:39:04,VALID,1004.12,VALID,0,VALID,91.9967,VALID,0,VALID,24.015,VALID,34,VALID,0.300391,
2008-10-07, 03:40:04,VALID,1004.11,VALID,0,VALID,92.1645,VALID,0,VALID,24.0345,VALID,34,VALID,0.708594,
2008-10-07, 03:41:04,VALID,1004.12,VALID,0,VALID,92.2027,VALID,0,VALID,24.1123,VALID,34,VALID,0.469141,
2008-10-07, 03:42:04,VALID,1004.13,VALID,0,VALID,91.9814,VALID,0,VALID,24.1318,VALID,34,VALID,0.475391,
2008-10-07, 03:43:04,VALID,1004.12,VALID,0,VALID,91.7754,VALID,0,VALID,24.1707,VALID,33,VALID,0.183594,
2008-10-07, 03:44:04,VALID,1004.1,VALID,0,VALID,91.6305,VALID,0,VALID,24.1902,VALID,33,VALID,0.444141,